Weather History for Page, AZ

Change the Weather History Date:

Wednesday, January 22, 2014

  Actual Average Record
Temperature  
Mean Temperature 38 °F -  
Max Temperature 48 °F 44 °F 59 °F (1969)
Min Temperature 28 °F 26 °F 11 °F (1963)
Degree Days  
Heating Degree Days 27    
Moisture  
Dew Point 19 °F    
Average Humidity 48    
Maximum Humidity 61    
Minimum Humidity 24    
Precipitation  
Precipitation 0.00 in - - ()
Sea Level Pressure  
Sea Level Pressure 30.10 in    
Wind  
Wind Speed 1 mph (NNW)    
Max Wind Speed 6 mph    
Max Gust Speed -    
Visibility 9 miles    
Events      
Averages and records for this station are not official NWS values.
T = Trace of Precipitation, MM = Missing Value Source: NWS Daily Summary

Daily Weather History Graph

Daily Weather History Graph

Search for Another Location

Airport:

Trip Planner

Search our weather history database for the weather conditions in past years. The results will help you decide how hot, cold, wet, or windy it might be!

Date:

Astronomy

Jan. 22, 2014 Rise Set
Actual Time 7:34 AM MST 5:40 PM MST
Civil Twilight 7:07 AM MST 6:08 PM MST
Nautical Twilight 6:35 AM MST 6:39 PM MST
Astronomical Twilight 6:04 AM MST 7:10 PM MST
Moon No Moon Rise 10:48 AM MST (1/22)
Length of Visible Light 11h 01m
Length of Day
10h 05m
Waning Gibbous, 65% of the Moon is Illuminated
Jan 22
Waning Gibbous
Jan 23
Last Quarter
Jan 30
New
Feb 6
First Quarter
Feb 14
Full

Hourly Weather History & Observations

Time (MST) Temp. Windchill Dew Point Humidity Pressure Visibility Wind Dir Wind Speed Gust Speed Precip Events Conditions
12:53 AM 32.0 °F - 18.0 °F 56% 30.25 in 10.0 mi Calm Calm - N/A   Clear
1:53 AM 33.1 °F - 17.1 °F 52% 30.23 in 10.0 mi Calm Calm - N/A   Clear
2:53 AM 30.0 °F - 17.1 °F 59% 30.22 in 10.0 mi Calm Calm - N/A   Clear
3:53 AM 30.0 °F 25.2 °F 16.0 °F 56% 30.21 in 10.0 mi WSW 4.6 mph - N/A   Clear
4:53 AM 28.9 °F - 16.0 °F 58% 30.20 in 10.0 mi Calm Calm - N/A   Clear
5:53 AM 32.0 °F 28.7 °F 16.0 °F 52% 30.19 in 10.0 mi NW 3.5 mph - N/A   Clear
6:53 AM 30.0 °F 26.5 °F 18.0 °F 61% 30.22 in 10.0 mi WSW 3.5 mph - N/A   Clear
7:53 AM 30.9 °F 26.2 °F 16.0 °F 54% 30.20 in 9.0 mi SW 4.6 mph - N/A   Clear
8:53 AM 33.1 °F - 18.0 °F 54% 30.19 in 10.0 mi Calm Calm - N/A   Clear
9:53 AM 35.1 °F - 18.0 °F 50% 30.18 in 10.0 mi Calm Calm - N/A   Clear
10:53 AM 36.0 °F - 18.0 °F 48% 30.17 in 10.0 mi Calm Calm - N/A   Clear
11:53 AM 41.0 °F - 19.0 °F 41% 30.11 in 10.0 mi Calm Calm - N/A   Clear
12:53 PM 43.0 °F 41.3 °F 19.9 °F 40% 30.06 in 10.0 mi North 3.5 mph - N/A   Clear
1:53 PM 43.0 °F 39.5 °F 21.0 °F 42% 30.03 in 10.0 mi NNW 5.8 mph - N/A   Clear
2:53 PM 46.9 °F - 21.0 °F 36% 30.00 in 10.0 mi NNE 4.6 mph - N/A   Clear
3:53 PM 45.0 °F 41.8 °F 19.9 °F 37% 29.99 in 10.0 mi NNE 5.8 mph - N/A   Clear
4:53 PM 45.0 °F 43.5 °F 19.9 °F 37% 29.99 in 10.0 mi NNE 3.5 mph - N/A   Clear
5:53 PM 41.0 °F - 21.0 °F 45% 29.99 in 10.0 mi Calm Calm - N/A   Clear
6:53 PM 37.9 °F - 19.9 °F 48% 30.01 in 7.0 mi Calm Calm - N/A   Clear
7:53 PM 37.0 °F - 19.9 °F 50% 30.01 in 6.0 mi Calm Calm - N/A   Haze
8:53 PM 36.0 °F - 19.0 °F 50% 29.99 in 10.0 mi Calm Calm - N/A   Clear
9:53 PM 34.0 °F - 19.0 °F 54% 30.00 in 5.0 mi Calm Calm - N/A   Haze
10:53 PM 33.1 °F - 19.9 °F 59% 30.01 in 5.0 mi Calm Calm - N/A   Haze
11:53 PM 33.1 °F - 19.9 °F 59% 30.01 in 10.0 mi Calm Calm - N/A   Clear